CGBFR CYSA-CYKF

Flight info

Callsign CGBFR
Flight time 0h 22m
Altitude 4000
Route DCT
Aircraft BE58/L-SDFGRY/C

Departure

Time 2026-04-29 01:37
Airport Stratford Municipal Airport (CYSA)

Arrival

Time 2026-04-29 02:00
Airport Region of Waterloo International Airport (CYKF)
Time Latitude Longitude Altitude Speed Heading
2026-04-29 01:37 43.41567 -80.88521 2338 ft 130 kts 102°
2026-04-29 01:37 43.41469 -80.87301 2509 ft 131 kts 64°
2026-04-29 01:37 43.41994 -80.86313 2739 ft 131 kts 60°
2026-04-29 01:38 43.42026 -80.85049 2972 ft 138 kts 104°
2026-04-29 01:38 43.42032 -80.83710 3194 ft 145 kts 81°
2026-04-29 01:38 43.42158 -80.82303 3414 ft 150 kts 84°
2026-04-29 01:38 43.42275 -80.80869 3626 ft 152 kts 82°
2026-04-29 01:39 43.42413 -80.79418 3845 ft 154 kts 81°
2026-04-29 01:39 43.42546 -80.77948 4009 ft 158 kts 82°
2026-04-29 01:39 43.42680 -80.76394 4023 ft 168 kts 82°
2026-04-29 01:39 43.42750 -80.74768 3886 ft 175 kts 114°
2026-04-29 01:40 43.42507 -80.73164 3994 ft 170 kts 82°
2026-04-29 01:40 43.42960 -80.71680 4010 ft 171 kts 62°
2026-04-29 01:40 43.43277 -80.70086 4017 ft 176 kts 82°
2026-04-29 01:40 43.43403 -80.68395 4016 ft 178 kts 83°
2026-04-29 01:41 43.43537 -80.66702 4023 ft 179 kts 84°
2026-04-29 01:41 43.43685 -80.64988 4022 ft 180 kts 82°
2026-04-29 01:41 43.43848 -80.63277 4020 ft 180 kts 82°
2026-04-29 01:41 43.44004 -80.61573 4011 ft 180 kts 83°
2026-04-29 01:42 43.44156 -80.59839 4008 ft 180 kts 81°
2026-04-29 01:42 43.44624 -80.58271 4005 ft 175 kts 51°
2026-04-29 01:42 43.45332 -80.56927 4009 ft 174 kts 51°
2026-04-29 01:42 43.46002 -80.55528 4008 ft 175 kts 56°
2026-04-29 01:43 43.46631 -80.54096 4008 ft 175 kts 54°
2026-04-29 01:43 43.47277 -80.52673 4002 ft 176 kts 55°
2026-04-29 01:43 43.47912 -80.51226 4005 ft 177 kts 56°
2026-04-29 01:43 43.48547 -80.49762 4008 ft 178 kts 56°
2026-04-29 01:44 43.49184 -80.48295 4003 ft 179 kts 55°
2026-04-29 01:44 43.49824 -80.46831 4005 ft 177 kts 56°
2026-04-29 01:44 43.50468 -80.45375 4007 ft 178 kts 56°
2026-04-29 01:44 43.51103 -80.43912 4007 ft 178 kts 56°
2026-04-29 01:45 43.51742 -80.42449 4004 ft 178 kts 56°
2026-04-29 01:45 43.52380 -80.40991 4004 ft 178 kts 56°
2026-04-29 01:45 43.53020 -80.39528 4005 ft 179 kts 56°
2026-04-29 01:45 43.53663 -80.38057 4002 ft 179 kts 56°
2026-04-29 01:46 43.54303 -80.36590 4004 ft 179 kts 56°
2026-04-29 01:46 43.54945 -80.35122 4004 ft 178 kts 56°
2026-04-29 01:46 43.55583 -80.33657 4003 ft 178 kts 56°
2026-04-29 01:46 43.56215 -80.32193 4005 ft 177 kts 56°
2026-04-29 01:47 43.56860 -80.30702 4001 ft 177 kts 56°
2026-04-29 01:47 43.57483 -80.29283 4000 ft 176 kts 56°
2026-04-29 01:47 43.58117 -80.27833 4000 ft 177 kts 56°
2026-04-29 01:47 43.58759 -80.26362 3999 ft 177 kts 56°
2026-04-29 01:48 43.59385 -80.24921 4000 ft 177 kts 56°
2026-04-29 01:48 43.60018 -80.23470 4009 ft 177 kts 55°
2026-04-29 01:48 43.60651 -80.22018 4007 ft 177 kts 56°
2026-04-29 01:48 43.61283 -80.20560 4015 ft 176 kts 56°
2026-04-29 01:49 43.61913 -80.19104 4012 ft 177 kts 56°
2026-04-29 01:49 43.62550 -80.17634 4011 ft 177 kts 56°
2026-04-29 01:49 43.62762 -80.16031 3841 ft 181 kts 134°
2026-04-29 01:49 43.61858 -80.16406 3319 ft 171 kts 251°
2026-04-29 01:50 43.61411 -80.17874 3193 ft 168 kts 245°
2026-04-29 01:50 43.60804 -80.19261 3078 ft 167 kts 239°
2026-04-29 01:50 43.60086 -80.20438 3149 ft 158 kts 232°
2026-04-29 01:50 43.59379 -80.21634 3032 ft 157 kts 238°
2026-04-29 01:51 43.58708 -80.22678 3376 ft 141 kts 227°
2026-04-29 01:51 43.58033 -80.23816 3130 ft 152 kts 241°
2026-04-29 01:51 43.57418 -80.25066 2905 ft 162 kts 238°
2026-04-29 01:51 43.56727 -80.26276 2824 ft 162 kts 234°
2026-04-29 01:52 43.56013 -80.27487 2758 ft 161 kts 234°
2026-04-29 01:52 43.55277 -80.28660 2589 ft 162 kts 231°
2026-04-29 01:52 43.54516 -80.29778 2547 ft 161 kts 230°
2026-04-29 01:52 43.53746 -80.30951 2287 ft 169 kts 233°
2026-04-29 01:53 43.52933 -80.32143 2068 ft 169 kts 228°
2026-04-29 01:53 43.52026 -80.33172 1963 ft 169 kts 189°
2026-04-29 01:53 43.50819 -80.33292 1689 ft 176 kts 191°
2026-04-29 01:53 43.49608 -80.33573 1459 ft 177 kts 200°
2026-04-29 01:54 43.48484 -80.34204 1419 ft 166 kts 213°
2026-04-29 01:54 43.47566 -80.34993 1622 ft 130 kts 219°
2026-04-29 01:54 43.46916 -80.35848 1438 ft 140 kts 241°
2026-04-29 01:54 43.46447 -80.37089 1385 ft 156 kts 245°
2026-04-29 01:55 43.46015 -80.38396 1705 ft 143 kts 251°
2026-04-29 01:55 43.45791 -80.39258 1783 ft 143 kts 268°
2026-04-29 01:55 43.46278 -80.40377 1832 ft 155 kts 337°
2026-04-29 01:55 43.47330 -80.39951 1747 ft 175 kts 48°
2026-04-29 01:56 43.47428 -80.38367 1580 ft 180 kts 109°
2026-04-29 01:56 43.47185 -80.36685 1711 ft 166 kts 104°
2026-04-29 01:56 43.46680 -80.35257 1809 ft 163 kts 134°
2026-04-29 01:56 43.45867 -80.34260 1875 ft 157 kts 140°
2026-04-29 01:57 43.45044 -80.33509 1814 ft 136 kts 160°
2026-04-29 01:57 43.44224 -80.32655 1439 ft 150 kts 139°
2026-04-29 01:57 43.43462 -80.31721 1216 ft 144 kts 139°
2026-04-29 01:57 43.42750 -80.30900 1268 ft 123 kts 167°
2026-04-29 01:58 43.42240 -80.31402 1303 ft 110 kts 282°
2026-04-29 01:58 43.42449 -80.32552 1334 ft 137 kts 294°
2026-04-29 01:58 43.42977 -80.33690 1410 ft 147 kts 308°
2026-04-29 01:58 43.43703 -80.34795 1405 ft 156 kts 315°
2026-04-29 01:59 43.44382 -80.35861 1391 ft 146 kts 305°
2026-04-29 01:59 43.44981 -80.36968 1312 ft 144 kts 309°
2026-04-29 01:59 43.45610 -80.37987 1405 ft 131 kts 308°
2026-04-29 01:59 43.46222 -80.38756 1222 ft 137 kts 356°
2026-04-29 02:00 43.46484 -80.38695 1030 ft 0 kts 353°